Hourly Data Report for October 01, 2017

All times are specified in Local Standard Time (LST). Add 1 hour to adjust for Daylight Saving Time where and when it is observed.

NORTH BAY A
ONTARIO

46°21'50.000" N
79°25'27.000" W
370.30 m
6085680
71731
YYB

Download Data

Hourly Data (October 2017)
Hourly Data Report for October 1, 2017
Temp Definition
°C
Dew Point Temp Definition
°C
Rel Hum Definition
%
Wind Dir Definition
10's deg

Wind Spd Definition
km/h
Visibility Definition
km
Stn Press Definition
kPa
Hmdx Definition


Wind Chill Definition


Weather Definition


TIME
00:00 Legend Double Dagger 6.0 4.5 90 27 9 16.1 98.37     LegendNANA
01:00 Legend Double Dagger 6.4 5.2 92 26 13 16.1 98.36     LegendNANA
02:00 Legend Double Dagger 6.0 5.1 94 26 9 16.1 98.36     LegendNANA
03:00 Legend Double Dagger 5.7 5.0 95 27 8 1.0 98.36     Fog
04:00 Legend Double Dagger 5.4 4.8 96 27 9 16.1 98.37     LegendNANA
05:00 Legend Double Dagger 4.8 4.2 96 29 8 0.4 98.38     Fog
06:00 Legend Double Dagger 5.3 4.7 96 27 8 2.4 98.38     Fog
07:00 Legend Double Dagger 5.3 4.7 96 28 4 2.8 98.39     Fog
08:00 Legend Double Dagger 7.8 7.2 96 22 8 0.2 98.42     Fog
09:00 Legend Double Dagger 9.8 9.2 96 22 13 16.1 98.40     LegendNANA
10:00 Legend Double Dagger 12.1 8.5 79 23 15 16.1 98.38     LegendNANA
11:00 Legend Double Dagger 13.6 7.6 67 22 21 16.1 98.36     LegendNANA
12:00 Legend Double Dagger 14.7 7.9 63 23 17 16.1 98.32     LegendNANA
13:00 Legend Double Dagger 15.2 7.2 59 26 18 16.1 98.27     LegendNANA
14:00 Legend Double Dagger 15.8 6.1 52 24 24 16.1 98.20     LegendNANA
15:00 Legend Double Dagger 16.3 5.6 49 22 18 16.1 98.14     LegendNANA
16:00 Legend Double Dagger 15.8 5.4 50 27 15 16.1 98.13     LegendNANA
17:00 Legend Double Dagger 14.9 6.4 56 25 11 16.1 98.12     LegendNANA
18:00 Legend Double Dagger 12.4 6.7 68 24 9 16.1 98.11     LegendNANA
19:00 Legend Double Dagger 11.5 6.7 72 28 5 16.1 98.11     LegendNANA
20:00 Legend Double Dagger 8.7 6.6 87   0 16.1 98.18     LegendNANA
21:00 Legend Double Dagger 8.6 6.9 89   0 16.1 98.20     LegendNANA
22:00 Legend Double Dagger 7.7 6.3 91 32 4 16.1 98.23     LegendNANA
23:00 Legend Double Dagger 5.9 4.6 91 33 5 16.1 98.26     LegendNANA

Notes on Data Quality.

Legend

  • E = Estimated
  • M = Missing
  • NA = Not Available
  • ‡ = Partner data that is not subject to review by the National Climate Archives
Date modified: